Waarnemingen

Advertentie
Mijn weer
Helgoland, Duitsland (10015): temperatuur & dauwpunt: 18.05.2017 04:00:00 - 24.05.2017 04:00:00 (CEST)Helgoland, Duitsland (10015): temperatuur 5cm: 18.05.2017 04:00:00 - 24.05.2017 04:00:00 (CEST)Helgoland, Duitsland (10015): windsnelheid & windstoten: 18.05.2017 04:00:00 - 24.05.2017 04:00:00 (CEST)Helgoland, Duitsland (10015): windrichting: 18.05.2017 04:00:00 - 24.05.2017 04:00:00 (CEST)Helgoland, Duitsland (10015): luchtdruk: 18.05.2017 04:00:00 - 24.05.2017 04:00:00 (CEST)Helgoland, Duitsland (10015): zicht: 18.05.2017 04:00:00 - 24.05.2017 04:00:00 (CEST)Helgoland, Duitsland (10015): Zonneschijnduur: 18.05.2017 04:00:00 - 24.05.2017 04:00:00 (CEST)Helgoland, Duitsland (10015): neerslag: 18.05.2017 04:00:00 - 24.05.2017 04:00:00 (CEST)
Datum & Tijd tt [°C] td [°C] tt 5cm [°C] ff [km/u] ff [kn] fx [km/u] fx [kn] dd ppp [hPa] vv [km] sd [min] rr [mm]
24.05.2017 04:00:00 10,9 9,2 9,7 30 16 40 22 WNW 1020,6 20 0 0,0
24.05.2017 03:00:00 11,0 9,1 10,0 30 16 41 22 WNW 1020,5 20 0 0,0
24.05.2017 02:00:00 11,2 9,0 10,1 31 17 41 22 WNW 1020,4 23 0 0,0
24.05.2017 01:00:00 11,3 9,3 10,4 31 17 44 24 WNW 1020,4 19 0 0,0
24.05.2017 00:00:00 11,4 9,5 11,1 36 19 43 23 WNW 1020,4 18 0 0,0
23.05.2017 23:00:00 11,6 9,4 10,9 32 17 44 24 WNW 1020,2 21 0 0,0
23.05.2017 22:00:00 11,4 9,5 10,9 34 18 46 25 WNW 1019,8 18 0 0,0
23.05.2017 21:00:00 11,5 9,1 11,6 37 20 49 27 WNW 1019,1 25 24 0,0
23.05.2017 20:00:00 12,0 8,9 13,5 36 19 53 29 WNW 1018,6 19 54 0,0
23.05.2017 19:00:00 12,4 9,6 14,2 39 21 54 29 WNW 1018,0 14 35 0,0
23.05.2017 18:00:00 12,4 9,6 15,0 38 21 54 29 WNW 1017,4 15 30 0,0
23.05.2017 17:00:00 13,3 10,4 18,4 36 19 47 26 WNW 1016,7 17 51 0,0
23.05.2017 16:00:00 13,3 10,9 17,8 35 19 43 23 WNW 1016,3 8 27 0,0
23.05.2017 15:00:00 13,6 11,2 20,4 27 15 38 20 WNW 1015,5 7 53 0,0
23.05.2017 14:00:00 14,7 11,4 20,3 20 11 38 20 W 1015,0 10 45 0,0
23.05.2017 13:00:00 15,1 11,6 23,1 12 7 19 10 WNW 1014,5 10 58 0,0
23.05.2017 12:00:00 15,2 11,4 21,2 12 6 14 8 WZW 1014,1 8 33 0,0
23.05.2017 11:00:00 14,9 11,6 18,5 9 5 12 7 ZW 1013,9 9 7 0,0
23.05.2017 10:00:00 14,3 11,0 16,6 10 5 19 11 ZZW 1014,1 10 24 0,0
23.05.2017 09:00:00 14,8 11,1 18,2 16 9 21 12 Z 1014,1 12 34 0,0
23.05.2017 08:00:00 13,8 11,1 14,6 20 11 24 13 Z 1013,8 10 3 0,0
23.05.2017 07:00:00 13,7 11,1 13,4 21 11 24 13 Z 1013,9 9 0 0,0
23.05.2017 06:00:00 13,7 11,4 12,4 22 12 25 14 ZZO 1013,9 8 0 0,0
23.05.2017 05:00:00 13,6 11,4 12,7 21 12 26 14 ZZO 1014,4 9 0 0,0
23.05.2017 04:00:00 13,4 11,3 12,4 24 13 30 16 ZZO 1014,8 10 0 0,0
23.05.2017 03:00:00 13,2 11,1 12,0 29 16 43 23 ZO 1015,2 9 0 0,0
23.05.2017 02:00:00 14,1 10,7 12,7 38 20 42 23 ZO 1015,4 17 0 0,0
23.05.2017 01:00:00 14,5 11,8 13,6 30 16 33 18 ZO 1016,2 14 0 0,0
23.05.2017 00:00:00 14,9 12,2 13,7 24 13 27 15 OZO 1016,7 14 0 0,0
22.05.2017 23:00:00 15,1 11,4 13,8 20 11 22 12 O 1017,2 32 0 0,0
22.05.2017 22:00:00 15,1 11,3 13,9 21 11 22 12 O 1017,4 24 0 0,0
22.05.2017 21:00:00 15,4 10,7 14,3 19 10 20 11 ONO 1017,7 29 0 0,0
22.05.2017 20:00:00 15,9 10,4 15,9 18 10 19 11 ONO 1018,0 31 51 0,0
22.05.2017 19:00:00 16,9 10,5 21,1 17 9 19 10 ONO 1018,5 22 60 0,0
22.05.2017 18:00:00 17,0 11,2 21,9 18 10 19 11 ONO 1019,2 21 60 0,0
22.05.2017 17:00:00 17,1 12,7 23,6 17 9 20 11 ONO 1019,7 17 60 0,0
22.05.2017 16:00:00 17,1 12,7 23,9 19 10 19 11 ONO 1020,2 13 60 0,0
22.05.2017 15:00:00 16,4 12,0 24,5 15 8 16 9 O 1020,9 18 60 0,0
22.05.2017 14:00:00 16,0 11,2 24,2 15 8 16 9 O 1021,3 11 60 0,0
22.05.2017 13:00:00 16,1 11,0 23,5 16 8 18 10 OZO 1021,8 15 60 0,0
22.05.2017 12:00:00 16,1 10,9 22,4 15 8 16 9 OZO 1022,2 16 60 0,0
22.05.2017 11:00:00 15,3 10,0 21,2 15 8 20 11 OZO 1022,5 21 60 0,0
22.05.2017 10:00:00 15,1 10,0 18,9 16 9 18 10 OZO 1022,5 30 60 0,0
22.05.2017 09:00:00 14,4 10,7 15,7 13 7 16 9 ZO 1022,8 26 60 0,0
22.05.2017 08:00:00 13,3 10,5 13,5 10 6 16 8 ZO 1023,1 20 60 0,0
22.05.2017 07:00:00 12,9 10,2 11,3 15 8 17 9 ZZO 1023,3 22 49 0,0
22.05.2017 06:00:00 12,0 11,1 9,3 11 6 13 7 OZO 1023,6 24 0 0,0
22.05.2017 05:00:00 11,7 10,6 8,5 10 6 11 6 OZO 1023,9 27 0 0,0
22.05.2017 04:00:00 11,3 10,1 7,0 8 4 9 5 O 1024,1 24 0 0,0
22.05.2017 03:00:00 11,6 10,3 5,2 6 3 9 5 O 1024,6 25 0 0,0
22.05.2017 02:00:00 11,7 10,0 7,5 8 4 11 6 OZO 1024,9 37 0 0,0
22.05.2017 01:00:00 11,7 10,1 8,6 10 5 11 6 OZO 1025,2 35 0 0,0
22.05.2017 00:00:00 11,6 10,1 6,5 6 3 8 5 OZO 1025,4 36 0 0,0
21.05.2017 23:00:00 11,8 10,0 7,6 6 3 7 4 OZO 1025,6 37 0 0,0
21.05.2017 22:00:00 11,9 9,7 9,0 4 2 5 3 O 1025,6 39 1 0,0
21.05.2017 21:00:00 12,7 9,3 12,2 4 2 9 5 NNO 1025,8 51 60 0,0
21.05.2017 20:00:00 13,0 9,2 16,9 8 5 15 8 N 1026,1 43 60 0,0
21.05.2017 19:00:00 13,9 8,6 18,1 10 5 18 10 NW 1026,4 28 60 0,0
21.05.2017 18:00:00 13,9 9,4 19,8 15 8 23 12 WNW 1026,6 25 60 0,0
21.05.2017 17:00:00 14,2 9,2 21,4 18 10 25 13 NW 1026,9 19 60 0,0
21.05.2017 16:00:00 14,3 9,9 22,6 13 7 18 10 WNW 1027,3 12 60 0,0
21.05.2017 15:00:00 14,5 9,7 20,6 7 4 10 5 WZW 1027,5 15 60 0,0
21.05.2017 14:00:00 15,2 10,5 21,5 8 5 17 9 ZW 1027,6 16 60 0,0
21.05.2017 13:00:00 14,6 10,2 19,8 16 8 18 10 ZW 1027,6 14 60 0,0
21.05.2017 12:00:00 13,4 9,5 18,1 13 7 17 9 ZW 1027,4 12 60 0,0
21.05.2017 11:00:00 13,7 10,4 18,6 16 8 22 12 WZW 1027,1 8 60 0,0
21.05.2017 10:00:00 12,6 9,3 15,4 19 11 26 14 ZW 1026,8 9 60 0,0
21.05.2017 09:00:00 12,9 9,2 14,8 23 13 29 16 ZZW 1026,3 10 60 0,0
21.05.2017 08:00:00 12,6 9,3 13,2 18 10 22 12 Z 1025,9 9 60 0,0
21.05.2017 07:00:00 12,3 9,4 11,4 18 10 24 13 Z 1025,5 7 57 0,0
21.05.2017 06:00:00 11,9 10,4 10,6 21 11 25 13 Z 1025,3 3,7 0 0,0
21.05.2017 05:00:00 12,3 10,7 10,8 22 12 29 15 Z 1025,4 3,7 0 0,0
21.05.2017 04:00:00 12,5 10,8 10,9 23 12 26 14 Z 1025,4 7 0 0,0
21.05.2017 03:00:00 12,3 9,5 10,1 18 10 21 11 Z 1025,4 10 0 0,0
21.05.2017 02:00:00 12,4 9,2 10,2 17 9 19 11 ZZO 1025,4 12 0 0,0
21.05.2017 01:00:00 12,1 10,0 9,6 12 6 14 8 ZZO 1025,2 10 0 0,0
21.05.2017 00:00:00 11,7 10,0 8,9 9 5 10 6 ZZO 1024,8 9 0 0,0
20.05.2017 23:00:00 12,0 10,1 9,8 9 5 13 7 Z 1024,7 9 0 0,0
20.05.2017 22:00:00 12,3 10,5 10,2 8 5 9 5 Z 1024,4 12 0 0,0
20.05.2017 21:00:00 12,8 10,0 12,1 8 5 10 5 Z 1023,9 15 57 0,0
20.05.2017 20:00:00 13,2 10,0 15,3 9 5 13 7 ZZW 1023,5 11 60 0,0
20.05.2017 19:00:00 13,9 8,5 17,5 10 5 11 6 ZW 1023,2 19 60 0,0
20.05.2017 18:00:00 14,4 8,1 20,5 4 2 7 4 ZZW 1022,6 19 60 0,0
20.05.2017 17:00:00 15,2 8,7 20,3 3 2 7 4 ZZW 1022,0 17 60 0,0
20.05.2017 16:00:00 13,9 8,7 20,1 5 3 9 5 W 1021,5 13 60 0,0
20.05.2017 15:00:00 13,9 10,0 20,3 8 4 11 6 W 1021,1 12 60 0,0
20.05.2017 14:00:00 13,8 10,1 20,2 9 5 16 9 WZW 1020,5 9 60 0,0
20.05.2017 13:00:00 13,3 10,1 19,0 14 7 23 12 ZW 1020,0 9 60 0,0
20.05.2017 12:00:00 12,7 9,9 17,2 19 10 22 12 ZW 1019,2 8 60 0,0
20.05.2017 11:00:00 12,6 10,0 16,9 16 8 21 12 ZW 1018,4 8 57 0,0
20.05.2017 10:00:00 12,5 9,9 15,6 17 9 21 12 ZW 1017,7 8 51 0,0
20.05.2017 09:00:00 11,7 9,5 13,5 14 7 16 9 ZW 1017,0 47 49 0,0
20.05.2017 08:00:00 11,3 9,2 12,0 13 7 21 12 WZW 1016,0 39 17 0,0
20.05.2017 07:00:00 10,8 9,3 10,6 14 8 24 13 WZW 1015,4 34 0 0,0
20.05.2017 06:00:00 10,8 9,4 10,5 19 11 25 13 WZW 1014,7 29 0 0,0
20.05.2017 05:00:00 10,8 9,2 10,5 19 10 26 14 WZW 1014,2 37 0 0,0
20.05.2017 04:00:00 10,9 9,3 10,5 21 11 27 14 WZW 1013,7 38 0 0,0
20.05.2017 03:00:00 10,9 9,5 10,4 23 12 27 14 W 1013,5 36 0 0,0
20.05.2017 02:00:00 10,8 9,9 10,6 19 10 24 13 WZW 1013,4 26 0 0,0
20.05.2017 01:00:00 10,9 10,5 10,7 13 7 29 16 WZW 1013,5 6 0 0,3
20.05.2017 00:00:00 11,0 10,4 10,8 23 12 29 16 WZW 1013,4 6 0 1,7
19.05.2017 23:00:00 11,0 10,5 10,8 16 8 30 16 ZW 1013,8 9 0 1,1
19.05.2017 22:00:00 11,1 10,4 10,9 16 9 20 11 WZW 1013,0 7 0 0,6
19.05.2017 21:00:00 11,1 10,7 11,1 14 8 23 12 W 1012,3 3,0 0 3,9
19.05.2017 20:00:00 11,4 10,4 11,1 22 12 26 14 WZW 1012,3 2,3 0 0,7
19.05.2017 19:00:00 12,3 10,0 12,8 14 7 23 12 WNW 1011,8 17 0 0,0
19.05.2017 18:00:00 12,5 9,9 13,6 23 12 35 19 W 1011,5 19 0 0,0
19.05.2017 17:00:00 12,6 10,0 14,2 12 6 19 10 WNW 1011,5 16 0 0,0
19.05.2017 16:00:00 13,0 9,9 15,9 12 7 30 16 WNW 1011,2 12 1 0,0
19.05.2017 15:00:00 13,6 10,8 15,7 24 13 32 17 W 1010,6 9 2 0,0
19.05.2017 14:00:00 15,3 13,4 20,3 9 5 16 9 Z 1010,2 5 13 0,0
19.05.2017 13:00:00 14,9 13,2 22,2 13 7 16 9 ZO 1010,0 2,2 26 0,0
19.05.2017 12:00:00 13,3 13,3 17,9 16 9 20 11 ZZO 1009,5 0,9 0 0,0
19.05.2017 11:00:00 12,6 12,6 14,9 17 9 31 17 ZO 1009,1 0,5 0 0,0
19.05.2017 10:00:00 12,5 12,5 15,1 27 15 34 19 OZO 1008,9 0,2 0 0,0
19.05.2017 09:00:00 12,2 12,2 13,5 29 16 35 19 OZO 1009,0 0,2 0 0,0
19.05.2017 08:00:00 11,9 11,9 12,7 26 14 31 17 O 1009,0 0,1 0 0,0
19.05.2017 07:00:00 11,9 11,8 12,4 22 12 30 16 O 1009,3 1,5 0 0,0
19.05.2017 06:00:00 11,7 11,2 11,0 19 11 22 12 ONO 1009,3 6 0 0,0
19.05.2017 05:00:00 11,7 11,2 11,8 13 7 15 8 O 1010,1 8 0 0,0
19.05.2017 04:00:00 11,2 10,8 11,4 13 7 23 13 NNO 1010,3 10 0 0,0
19.05.2017 03:00:00 11,2 10,7 11,2 18 10 22 12 NNO 1010,6 13 0 0,0
19.05.2017 02:00:00 10,8 10,3 10,9 21 11 26 14 NNO 1011,2 12 0 0,0
19.05.2017 01:00:00 10,9 10,2 10,9 18 10 23 12 NNO 1012,1 23 0 0,1
19.05.2017 00:00:00 10,7 10,2 11,1 12 6 25 14 N 1012,7 18 0 0,0
18.05.2017 23:00:00 10,5 10,1 11,2 14 7 27 15 N 1012,6 17 0 0,0
18.05.2017 22:00:00 10,1 10,0 10,9 17 9 28 15 N 1012,7 1,1 0 0,0
18.05.2017 21:00:00 10,2 9,9 11,5 19 10 24 13 N 1012,7 2,5 0 0,0
18.05.2017 20:00:00 10,5 10,0 12,6 18 10 22 12 NNW 1012,6 3,7 0 0,0
18.05.2017 19:00:00 10,7 9,8 13,0 16 9 24 13 NW 1013,2 8 0 0,0
18.05.2017 18:00:00 11,2 10,4 13,8 16 9 28 15 NNW 1013,1 7 0 0,0
18.05.2017 17:00:00 11,2 10,2 13,4 21 12 27 15 WNW 1013,2 13 0 0,0
18.05.2017 16:00:00 11,2 10,5 13,6 19 10 30 16 WNW 1013,5 13 0 0,0
18.05.2017 15:00:00 11,5 10,3 15,1 27 15 35 19 W 1013,4 14 0 0,0
18.05.2017 14:00:00 11,6 10,5 16,5 27 14 32 17 W 1012,7 6 5 0,0
18.05.2017 13:00:00 11,7 10,6 15,0 19 11 37 20 W 1011,9 17 0 0,1
18.05.2017 12:00:00 11,8 10,8 12,3 23 12 30 16 W 1011,3 3,0 0 0,0
18.05.2017 11:00:00 12,3 10,7 14,9 24 13 38 21 WZW 1010,1 3,2 27 0,0
18.05.2017 10:00:00 14,2 11,3 17,4 29 15 37 20 WZW 1009,1 6 53 0,0
18.05.2017 09:00:00 14,4 11,8 16,9 22 12 32 17 ZZW 1008,3 11 53 0,0
18.05.2017 08:00:00 14,0 11,6 15,0 31 17 40 21 Z 1007,6 8 58 0,0
18.05.2017 07:00:00 14,6 12,1 14,5 35 19 40 22 Z 1007,3 9 28 0,0
18.05.2017 06:00:00 14,3 11,8 13,6 35 19 40 22 ZZO 1007,4 14 0 0,0
18.05.2017 05:00:00 14,3 12,1 13,4 32 17 37 20 ZZO 1007,8 14 0 0,0
18.05.2017 04:00:00 14,4 11,8 13,5 34 19 40 21 ZO 1008,3 16 0 0,0

tt = temperatuur
td = dauwpunt
tt 5cm = temperatuur 5cm
ff = windsnelheid
fx = windstoten
dd = windrichting
ppp = luchtdruk
vv = zicht
sd = Zonneschijnduur
rr = neerslag

Weerstations in de omgeving